UAE4F OMDB-WSSS

Flight info

Callsign UAE4F
Flight time N/A
Altitude 39000
Route IVURO M677 LALDO B505 NADSO A777 VAXIM P307 PARAR N571 BIKEN/N0485F410 N571 GUNIP M630 NIREN Y511 TOPOR A464 ARAMA DCT TEBUN TEBUN1B
Aircraft A359/H-SDE2E3GHIJ3J4J5LM1ORWXY/LB1D1

Departure

Time 2026-05-07 08:03
Airport Dubai International Airport (OMDB)

Arrival

Time N/A
Airport Singapore Changi Airport (WSSS)
Time Latitude Longitude Altitude Speed Heading
2026-05-07 07:42 25.25194 55.35718 29 ft 0 kts 213°
2026-05-07 07:46 25.25200 55.35723 28 ft 2 kts 212°
2026-05-07 07:47 25.25214 55.35733 28 ft 2 kts 215°
2026-05-07 07:47 25.25227 55.35744 26 ft 2 kts 217°
2026-05-07 07:47 25.25230 55.35746 26 ft 2 kts 218°
2026-05-07 07:47 25.25233 55.35748 26 ft 2 kts 218°
2026-05-07 07:48 25.25237 55.35752 26 ft 2 kts 220°
2026-05-07 07:49 25.25241 55.35756 25 ft 2 kts 221°
2026-05-07 07:49 25.25250 55.35766 26 ft 2 kts 227°
2026-05-07 07:49 25.25256 55.35772 26 ft 2 kts 232°
2026-05-07 07:50 25.25263 55.35785 25 ft 2 kts 251°
2026-05-07 07:50 25.25264 55.35802 25 ft 2 kts 291°
2026-05-07 07:50 25.25261 55.35810 26 ft 0 kts 298°
2026-05-07 07:52 25.25272 55.35788 26 ft 8 kts 299°
2026-05-07 07:52 25.25278 55.35776 28 ft 0 kts 300°
2026-05-07 07:59 25.25282 55.35769 28 ft 3 kts 300°
2026-05-07 07:59 25.25290 55.35753 28 ft 6 kts 300°
2026-05-07 07:59 25.25307 55.35723 28 ft 7 kts 301°
2026-05-07 07:59 25.25328 55.35692 28 ft 5 kts 316°
2026-05-07 08:00 25.25361 55.35686 28 ft 5 kts 14°
2026-05-07 08:00 25.25396 55.35702 28 ft 7 kts 25°
2026-05-07 08:00 25.25441 55.35730 28 ft 8 kts 30°
2026-05-07 08:00 25.25498 55.35772 28 ft 12 kts 31°
2026-05-07 08:01 25.25572 55.35821 28 ft 13 kts 37°
2026-05-07 08:01 25.25581 55.35909 28 ft 12 kts 116°
2026-05-07 08:01 25.25570 55.35928 28 ft 0 kts 122°
2026-05-07 08:01 25.25567 55.35933 28 ft 6 kts 122°
2026-05-07 08:02 25.25426 55.36185 28 ft 72 kts 122°
2026-05-07 08:02 25.25059 55.36841 28 ft 129 kts 121°
2026-05-07 08:02 25.24493 55.37868 32 ft 179 kts 122°
2026-05-07 08:02 25.23834 55.39076 505 ft 184 kts 127°
2026-05-07 08:03 25.23162 55.40241 1173 ft 179 kts 129°
2026-05-07 08:03 25.22460 55.41442 1432 ft 194 kts 129°
2026-05-07 08:03 25.21717 55.42766 1629 ft 212 kts 128°
2026-05-07 08:03 25.20925 55.44202 1910 ft 224 kts 126°
2026-05-07 08:04 25.20213 55.45776 2272 ft 237 kts 110°
2026-05-07 08:04 25.20004 55.47605 2793 ft 244 kts 96°
2026-05-07 08:04 25.19963 55.49513 3300 ft 251 kts 94°
2026-05-07 08:04 25.19929 55.51455 3833 ft 256 kts 94°
2026-05-07 08:05 25.19887 55.53434 4357 ft 261 kts 93°
2026-05-07 08:05 25.19837 55.55448 4943 ft 261 kts 92°
2026-05-07 08:05 25.19803 55.56776 5361 ft 260 kts 91°
2026-05-07 08:05 25.19751 55.58761 5999 ft 258 kts 89°
2026-05-07 08:06 25.19892 55.60722 6578 ft 254 kts 70°
2026-05-07 08:06 25.20767 55.62382 7024 ft 255 kts 43°
2026-05-07 08:06 25.22592 55.64160 7413 ft 273 kts 38°
2026-05-07 08:06 25.23591 55.65067 7740 ft 277 kts 39°
2026-05-07 08:07 25.25079 55.66432 8346 ft 279 kts 40°
2026-05-07 08:07 25.26555 55.67801 8935 ft 283 kts 41°
2026-05-07 08:07 25.28068 55.69213 9550 ft 285 kts 42°
2026-05-07 08:07 25.29584 55.70633 10153 ft 288 kts 42°
2026-05-07 08:08 25.31153 55.72110 10457 ft 303 kts 42°
2026-05-07 08:08 25.32798 55.73660 10697 ft 318 kts 43°
2026-05-07 08:08 25.34418 55.75399 10988 ft 330 kts 53°
2026-05-07 08:08 25.35533 55.77637 11244 ft 339 kts 73°
2026-05-07 08:09 25.35989 55.80240 11482 ft 351 kts 84°
2026-05-07 08:09 25.36258 55.82967 11790 ft 359 kts 85°
2026-05-07 08:09 25.36521 55.85706 12202 ft 365 kts 84°
2026-05-07 08:09 25.36802 55.88535 12583 ft 370 kts 84°
2026-05-07 08:10 25.37089 55.91360 13240 ft 368 kts 85°
2026-05-07 08:10 25.37191 55.94200 13694 ft 372 kts 95°
2026-05-07 08:10 25.36760 55.97044 14042 ft 377 kts 103°
2026-05-07 08:10 25.36148 55.99859 14561 ft 376 kts 104°
2026-05-07 08:11 25.35522 56.02698 14840 ft 385 kts 104°
2026-05-07 08:11 25.34888 56.05605 15154 ft 391 kts 104°
2026-05-07 08:11 25.34251 56.08538 15611 ft 392 kts 104°
2026-05-07 08:11 25.33613 56.11489 15942 ft 398 kts 103°
2026-05-07 08:12 25.32977 56.14495 16253 ft 404 kts 102°
2026-05-07 08:12 25.32511 56.17569 16695 ft 407 kts 98°
2026-05-07 08:12 25.32187 56.20692 17045 ft 412 kts 96°
2026-05-07 08:12 25.31934 56.23866 17398 ft 416 kts 95°
2026-05-07 08:13 25.31709 56.27029 17758 ft 420 kts 95°
2026-05-07 08:13 25.31478 56.30260 18118 ft 424 kts 95°
2026-05-07 08:13 25.31233 56.33530 18427 ft 428 kts 95°
2026-05-07 08:13 25.30973 56.36820 18746 ft 432 kts 95°
2026-05-07 08:14 25.30702 56.40132 19146 ft 433 kts 95°
2026-05-07 08:14 25.30498 56.43475 19449 ft 438 kts 93°
2026-05-07 08:14 25.30394 56.46855 19764 ft 441 kts 91°
2026-05-07 08:14 25.30332 56.50250 20171 ft 443 kts 91°
2026-05-07 08:15 25.30274 56.53676 20414 ft 449 kts 91°
2026-05-07 08:15 25.30147 56.57120 20859 ft 448 kts 96°
2026-05-07 08:15 25.29629 56.60515 21323 ft 448 kts 105°
2026-05-07 08:15 25.28692 56.63802 21682 ft 451 kts 110°
2026-05-07 08:16 25.27578 56.67054 22003 ft 454 kts 112°
2026-05-07 08:16 25.26370 56.70288 22356 ft 457 kts 114°
2026-05-07 08:16 25.25115 56.73526 22712 ft 460 kts 114°
2026-05-07 08:16 25.23857 56.76747 23059 ft 463 kts 114°
2026-05-07 08:17 25.22581 56.80029 23399 ft 466 kts 114°
2026-05-07 08:17 25.21306 56.83335 23670 ft 469 kts 114°
2026-05-07 08:17 25.20032 56.86658 23945 ft 472 kts 114°
2026-05-07 08:17 25.18750 56.90020 24214 ft 475 kts 114°
2026-05-07 08:18 25.17462 56.93402 24524 ft 478 kts 114°
2026-05-07 08:18 25.16173 56.96791 24840 ft 481 kts 114°
2026-05-07 08:18 25.14873 57.00204 25168 ft 483 kts 114°
2026-05-07 08:18 25.13565 57.03635 25522 ft 486 kts 114°
2026-05-07 08:19 25.12250 57.07080 25860 ft 489 kts 114°
2026-05-07 08:19 25.10928 57.10541 26195 ft 492 kts 114°
2026-05-07 08:19 25.09609 57.13988 26507 ft 496 kts 114°
2026-05-07 08:19 25.08262 57.17506 26822 ft 499 kts 114°
2026-05-07 08:20 25.06909 57.21037 27167 ft 502 kts 114°
2026-05-07 08:20 25.05540 57.24607 27520 ft 505 kts 115°
2026-05-07 08:20 25.04169 57.28180 27837 ft 508 kts 115°
2026-05-07 08:20 25.02778 57.31798 28169 ft 511 kts 115°
2026-05-07 08:21 25.01386 57.35419 28494 ft 514 kts 115°
2026-05-07 08:21 24.99982 57.39065 28809 ft 517 kts 115°
2026-05-07 08:21 24.98588 57.42685 29092 ft 520 kts 115°
2026-05-07 08:21 24.97170 57.46362 29458 ft 522 kts 115°
2026-05-07 08:22 24.95747 57.50051 29743 ft 525 kts 115°
2026-05-07 08:22 24.94313 57.53764 29985 ft 527 kts 115°
2026-05-07 08:22 24.92874 57.57489 30220 ft 530 kts 115°
2026-05-07 08:22 24.91424 57.61238 30464 ft 532 kts 115°
2026-05-07 08:23 24.89972 57.64989 30701 ft 533 kts 115°
2026-05-07 08:23 24.88509 57.68764 30878 ft 537 kts 115°
2026-05-07 08:23 24.87045 57.72539 31176 ft 537 kts 115°
2026-05-07 08:23 24.85579 57.76317 31524 ft 535 kts 115°
2026-05-07 08:24 24.84112 57.80093 31856 ft 535 kts 115°
2026-05-07 08:24 24.82667 57.83802 32176 ft 534 kts 116°
2026-05-07 08:24 24.81137 57.87503 32612 ft 529 kts 117°
2026-05-07 08:24 24.79539 57.91152 32951 ft 528 kts 118°
2026-05-07 08:25 24.77915 57.94781 33193 ft 529 kts 118°
2026-05-07 08:25 24.76285 57.98414 33401 ft 531 kts 118°
2026-05-07 08:25 24.74659 58.02058 33702 ft 530 kts 118°
2026-05-07 08:25 24.73045 58.05707 33977 ft 529 kts 118°